Home > Weather > Kragerø > Past weeks

Flag for Norway Past Weather in Kragerø, Norway — Yesterday and Last 2 Weeks

Now
61 °F

Cool.


Feels Like: 61 °F
Forecast: 60 / 76 °F
Wind: 7 mph from Northeast

Location: Jomfruland Fyr

Current Time: May 31, 2016 at 10:03:34 AM

Latest Report: May 31, 2016 at 7:00 AM


Visibility: N/A

Pressure: 30.15 "Hg

Humidity: 77%

Dew Point: 54 °F

Location of KragerøLocation

Past Weather in Kragerø — Graph

°F

Kragerø Temperature Yesterday

Maximum temperature yesterday: 65 °F (at 7:00 PM)
Minimum temperature yesterday: 55 °F (at 7:00 AM)
Average temperature yesterday: 59 °F

High & Low Weather Summary for the Past Weeks

 TemperatureHumidityPressure
High65 °F (May 30, 7:00 PM)97% (May 20, 3:00 AM)30.19 "Hg (May 20, 3:00 AM)
Low45 °F (May 17, 4:00 AM)30% (May 16, 11:00 AM)29.65 "Hg (May 18, 4:00 AM)
Average54 °F78%29.93 "Hg
* Reported May 16 7:00 AM — May 31 7:00 AM, Kragerø, Weather by CustomWeather, © 2016

Note: Actual official high and low records may vary slightly from our data, if they occured in-between our weather recording intervals... More about our weather records

Advertising

Kragerø Weather History for the Previous 24 Hours

Scroll right to see more
 ConditionsComfort  
Time TempWeatherWind HumidityBarometerVisibility
7:00 AM
Tue, May 31
61 °FCool.7 mph77%30.15 "HgN/A
6:00 AM60 °FCool.6 mph80%30.15 "HgN/A
5:00 AM59 °FCool.6 mph83%30.14 "HgN/A
4:00 AM59 °FCool.6 mph81%30.13 "HgN/A
3:00 AM60 °FCool.6 mph80%30.13 "HgN/A
2:00 AM60 °FCool.6 mph80%30.12 "HgN/A
1:00 AM61 °FCool.7 mph76%30.11 "HgN/A
12:00 AM61 °FCool.7 mph76%30.11 "HgN/A
11:00 PM
Mon, May 30
61 °FCool.5 mph79%30.10 "HgN/A
10:00 PM60 °FCool.5 mph80%30.10 "HgN/A
9:00 PM62 °FCool.3 mph77%30.09 "HgN/A
8:00 PM64 °FMild.6 mph72%30.08 "HgN/A
7:00 PM65 °FMild.6 mph67%30.07 "HgN/A
6:00 PM65 °FMild.5 mph70%30.08 "HgN/A
5:00 PM63 °FMild.3 mph76%30.09 "HgN/A
4:00 PM60 °FCool.3 mph85%30.09 "HgN/A
3:00 PM59 °FCool.2 mph86%30.10 "HgN/A
2:00 PM61 °FCool.6 mph74%30.09 "HgN/A
1:00 PM60 °FCool.6 mph77%30.09 "HgN/A
12:00 PM59 °FCool.5 mph80%30.10 "HgN/A
11:00 AM58 °FCool.7 mph83%30.10 "HgN/A
10:00 AM57 °FCool.8 mph86%30.11 "HgN/A
Weather by CustomWeather, © 2016

See weather overviewHow to use our weather pages